Humidity-temperature Sensor

Selected Measurement Type: Air Temperature

 
Air Temperature [°C]     6 entries per hour
Showing data from 8/23/2018 (00:00:00 Z) to 8/22/2018 (00:01:00 Z)
Previous Next [ Day | 3-Days | 7-Days ]
First Last
Prev [ Day | 3-Days | 7-Days ] Next
First Last

Start Time:     :
End Time:     :     
Time (in GMT) :00 :50 :40 :30 :20 :10
Previous Next [ Day | 3-Days | 7-Days ]
First Last
Prev [ Day | 3-Days | 7-Days ] Next
First Last


123 => good data
MM => data is determined as missing
-- => data not received/configured
Back to Top Back to Top
8/23/2018 00:00 to 23:10 22.93 22.94 22.92 22.80 22.87 22.83
8/22/2018 23:00 to 22:10 22.84 22.95 22.81 22.71 22.80 22.90
8/22/2018 22:00 to 21:10 22.85 22.79 22.86 22.94 22.89 22.89
8/22/2018 21:00 to 20:10 22.86 22.94 22.91 22.97 22.93 23.10
8/22/2018 20:00 to 19:10 22.81 23.01 22.81 22.80 22.98 22.86
8/22/2018 19:00 to 18:10 22.77 22.79 22.73 22.79 22.71 22.73
8/22/2018 18:00 to 17:10 22.96 22.89 22.82 22.83 22.97 22.88
8/22/2018 17:00 to 16:10 22.86 22.99 23.01 22.92 23.04 22.99
8/22/2018 16:00 to 15:10 22.92 23.00 23.12 23.07 23.10 23.19
8/22/2018 15:00 to 14:10 23.06 23.03 23.09 23.08 23.09 22.99
8/22/2018 14:00 to 13:10 23.04 23.05 22.98 22.97 22.96 23.00
8/22/2018 13:00 to 12:10 22.92 22.90 22.97 22.99 23.07 22.83
8/22/2018 12:00 to 11:10 22.87 22.82 22.84 22.82 22.58 22.77
8/22/2018 11:00 to 10:10 22.68 22.69 22.70 22.58 22.63 22.60
8/22/2018 10:00 to 9:10 22.59 22.51 22.72 22.63 22.64 22.57
8/22/2018 09:00 to 8:10 22.52 22.40 22.23 22.27 22.12 21.92
8/22/2018 08:00 to 7:10 21.86 21.84 22.06 22.19 22.38 22.51
8/22/2018 07:00 to 6:10 22.73 22.76 22.74 22.98 22.80 22.75
8/22/2018 06:00 to 5:10 22.85 22.97 22.75 22.73 22.84 22.79
8/22/2018 05:00 to 4:10 22.85 22.93 22.97 23.02 22.96 23.05
8/22/2018 04:00 to 3:10 23.04 22.95 23.11 23.20 23.28 23.28
8/22/2018 03:00 to 2:10 23.17 23.18 23.36 23.42 23.36 23.14
8/22/2018 02:00 to 1:10 23.25 23.27 23.22 23.16 23.09 23.30
8/22/2018 01:00 to 0:10 23.21 23.36 23.26 23.23 23.22 23.21